Weather History for Santorini Island, Greece

Change the Weather History Date:

Monday, December 10, 2012

  Actual Average Record
Temperature  
Mean Temperature 54 °F -  
Max Temperature 57 °F 58 °F 68 °F (2010)
Min Temperature 51 °F 52 °F 42 °F (1998)
Degree Days  
Heating Degree Days 11    
Growing Degree Days 4 (Base 50)    
Moisture  
Dew Point 42 °F    
Average Humidity 62    
Maximum Humidity 82    
Minimum Humidity 54    
Precipitation  
Precipitation 0.00 in - - ()
Sea Level Pressure  
Sea Level Pressure 29.67 in    
Wind  
Wind Speed 11 mph ()    
Max Wind Speed 17 mph    
Max Gust Speed 28 mph    
Visibility 6.2 miles    
Events Rain , Thunderstorm    
Averages and records for this station are not official NWS values.
T = Trace of Precipitation, MM = Missing Value Source: Averaged Metar Reports

Daily Weather History Graph

Daily Weather History Graph

Search for Another Location

Airport:

Trip Planner

Search our weather history database for the weather conditions in past years. The results will help you decide how hot, cold, wet, or windy it might be!

Date:

Astronomy

Dec. 10, 2012 Rise Set
Actual Time 7:18 AM EET 5:02 PM EET
Civil Twilight 6:50 AM EET 5:31 PM EET
Nautical Twilight 6:18 AM EET 6:03 PM EET
Astronomical Twilight 5:46 AM EET 6:35 PM EET
Moon 3:43 AM EET (12/10) 2:34 PM EET (12/10)
Length of Visible Light 10h 41m
Length of Day
9h 44m
Waning Crescent, 12% of the Moon is Illuminated
Dec 10
Waning Crescent
Dec 13
New
Dec 20
First Quarter
Dec 28
Full
Jan 5
Last Quarter

Hourly Weather History & Observations

Time (EET) Temp. Dew Point Humidity Pressure Visibility Wind Dir Wind Speed Gust Speed Precip Events Conditions
6:50 AM 55.4 °F 42.8 °F 63% 29.59 in 6.2 mi WSW 12.7 mph 24.2 mph N/A   Scattered Clouds
7:20 AM 55.4 °F 39.2 °F 54% 29.59 in 6.2 mi WSW 9.2 mph - N/A   Mostly Cloudy
7:50 AM 55.4 °F 39.2 °F 54% 29.59 in 6.2 mi WSW 11.5 mph - N/A   Mostly Cloudy
8:20 AM 55.4 °F 39.2 °F 54% 29.62 in 6.2 mi WSW 9.2 mph - N/A   Mostly Cloudy
8:50 AM 55.4 °F 42.8 °F 63% 29.62 in 6.2 mi WSW 11.5 mph - N/A   Mostly Cloudy
9:20 AM 57.2 °F 44.6 °F 63% 29.62 in 6.2 mi WSW 13.8 mph - N/A Rain Light Rain
9:50 AM 57.2 °F 41.0 °F 55% 29.62 in 6.2 mi WNW 13.8 mph - N/A   Scattered Clouds
10:20 AM 55.4 °F 42.8 °F 63% 29.62 in 6.2 mi NW 11.5 mph - N/A   Scattered Clouds
10:50 AM 55.4 °F 42.8 °F 63% 29.62 in 6.2 mi NW 12.7 mph - N/A   Scattered Clouds
11:20 AM 57.2 °F 46.4 °F 67% 29.65 in 6.2 mi North 16.1 mph 27.6 mph N/A   Mostly Cloudy
11:50 AM 51.8 °F 46.4 °F 82% 29.65 in 5.0 mi North 17.3 mph - N/A Rain , Thunderstorm Light Thunderstorms and Rain
12:20 PM 53.6 °F 46.4 °F 77% 29.68 in 6.2 mi North 17.3 mph - N/A   Mostly Cloudy
12:50 PM 53.6 °F 46.4 °F 77% 29.68 in 6.2 mi North 17.3 mph - N/A   Mostly Cloudy
1:20 PM 53.6 °F 42.8 °F 67% 29.68 in 6.2 mi NNW 12.7 mph - N/A   Mostly Cloudy
1:50 PM 55.4 °F 42.8 °F 63% 29.68 in 6.2 mi NNW 13.8 mph - N/A   Scattered Clouds
2:20 PM 55.4 °F 42.8 °F 63% 29.68 in 6.2 mi NW 13.8 mph - N/A   Scattered Clouds
2:50 PM 55.4 °F 41.0 °F 58% 29.71 in 6.2 mi NW 11.5 mph - N/A   Mostly Cloudy
3:20 PM 55.4 °F 41.0 °F 58% 29.71 in 6.2 mi NW 15.0 mph - N/A   Mostly Cloudy
3:50 PM 55.4 °F 39.2 °F 54% 29.71 in 6.2 mi NW 13.8 mph - N/A   Scattered Clouds
4:20 PM 53.6 °F 39.2 °F 58% 29.71 in 6.2 mi NW 11.5 mph - N/A   Scattered Clouds
4:50 PM 53.6 °F 39.2 °F 58% 29.74 in 6.2 mi NW 9.2 mph - N/A   Scattered Clouds
5:20 PM 51.8 °F 39.2 °F 62% 29.74 in 6.2 mi NNW 11.5 mph - N/A   Scattered Clouds
5:50 PM 53.6 °F 41.0 °F 62% 29.77 in 6.2 mi NW 12.7 mph - N/A   Scattered Clouds
6:20 PM 51.8 °F 39.2 °F 62% 29.77 in 6.2 mi NW 6.9 mph - N/A   Scattered Clouds
7:50 PM 51.8 °F 37.4 °F 58% 29.80 in 6.2 mi NW 9.2 mph - N/A   Scattered Clouds